Time,TemperatureF,DewpointF,PressureIn,WindDirection,WindDirectionDegrees,WindSpeedMPH,WindSpeedGustMPH,Humidity,HourlyPrecipIn,Conditions,Clouds,dailyrainin,SoftwareType,DateUTC
2013-04-08 00:00:00,40.7,39.0,29.75,SSE,165,0.0,3.0,93,0.05,,,0.09,weatherlink.com 1.10,2013-04-08 05:00:00,
2013-04-08 00:15:00,40.9,39.0,29.76,WSW,250,0.0,3.0,94,0.04,,,0.00,weatherlink.com 1.10,2013-04-08 05:15:00,
2013-04-08 00:31:00,41.0,39.0,29.77,South,178,0.0,0.0,94,0.06,,,0.04,weatherlink.com 1.10,2013-04-08 05:31:00,
2013-04-08 00:46:00,41.2,40.0,29.76,East,98,0.0,1.0,94,0.08,,,0.07,weatherlink.com 1.10,2013-04-08 05:46:00,
2013-04-08 01:01:00,41.3,40.0,29.77,East,84,1.0,1.0,94,0.10,,,0.10,weatherlink.com 1.10,2013-04-08 06:01:00,
2013-04-08 01:16:00,41.5,40.0,29.76,East,84,0.0,0.0,95,0.14,,,0.14,weatherlink.com 1.10,2013-04-08 06:16:00,
2013-04-08 01:31:00,41.6,40.0,29.76,South,190,0.0,3.0,95,0.14,,,0.18,weatherlink.com 1.10,2013-04-08 06:31:00,
2013-04-08 01:46:00,41.8,41.0,29.76,WSW,248,0.0,1.0,95,0.16,,,0.23,weatherlink.com 1.10,2013-04-08 06:46:00,
2013-04-08 02:01:00,41.6,40.0,29.74,North,3,1.0,1.0,95,0.19,,,0.29,weatherlink.com 1.10,2013-04-08 07:01:00,
2013-04-08 02:16:00,41.0,40.0,29.74,NE,53,0.0,1.0,95,0.17,,,0.32,weatherlink.com 1.10,2013-04-08 07:16:00,
2013-04-08 03:01:00,40.4,39.0,29.74,East,86,0.0,1.0,96,0.22,,,0.51,weatherlink.com 1.10,2013-04-08 08:01:00,
2013-04-08 03:16:00,40.2,39.0,29.73,ENE,71,0.0,2.0,96,0.22,,,0.55,weatherlink.com 1.10,2013-04-08 08:16:00,
2013-04-08 03:46:00,40.0,39.0,29.72,ENE,74,0.0,1.0,96,0.17,,,0.63,weatherlink.com 1.10,2013-04-08 08:46:00,
2013-04-08 04:01:00,40.1,39.0,29.72,ENE,68,0.0,2.0,96,0.16,,,0.67,weatherlink.com 1.10,2013-04-08 09:01:00,
2013-04-08 04:16:00,40.2,39.0,29.71,ENE,65,0.0,2.0,97,0.13,,,0.68,weatherlink.com 1.10,2013-04-08 09:16:00,
2013-04-08 04:31:00,40.1,39.0,29.71,ENE,70,0.0,2.0,97,0.13,,,0.72,weatherlink.com 1.10,2013-04-08 09:31:00,
2013-04-08 05:01:00,39.9,39.0,29.70,ENE,70,1.0,2.0,97,0.11,,,0.79,weatherlink.com 1.10,2013-04-08 10:01:00,
2013-04-08 05:16:00,40.0,39.0,29.69,NE,47,0.0,2.0,97,0.11,,,0.79,weatherlink.com 1.10,2013-04-08 10:16:00,
2013-04-08 05:31:00,40.0,39.0,29.69,ENE,70,0.0,1.0,97,0.07,,,0.79,weatherlink.com 1.10,2013-04-08 10:31:00,
2013-04-08 05:46:00,40.1,39.0,29.68,ENE,67,1.0,2.0,97,0.04,,,0.79,weatherlink.com 1.10,2013-04-08 10:46:00,
2013-04-08 06:01:00,39.9,39.0,29.68,ENE,70,0.0,2.0,97,0.00,,,0.79,weatherlink.com 1.10,2013-04-08 11:01:00,
2013-04-08 06:16:00,40.0,39.0,29.68,ENE,75,0.0,3.0,97,0.00,,,0.79,weatherlink.com 1.10,2013-04-08 11:16:00,
2013-04-08 06:31:00,40.0,39.0,29.69,East,83,0.0,4.0,97,0.00,,,0.79,weatherlink.com 1.10,2013-04-08 11:31:00,
2013-04-08 06:46:00,39.9,39.0,29.69,ENE,68,3.0,3.0,97,0.00,,,0.79,weatherlink.com 1.10,2013-04-08 11:46:00,
2013-04-08 07:01:00,39.7,39.0,29.70,ENE,67,0.0,2.0,97,0.00,,,0.79,weatherlink.com 1.10,2013-04-08 12:01:00,
2013-04-08 07:16:00,39.6,39.0,29.71,East,92,0.0,2.0,97,0.00,,,0.79,weatherlink.com 1.10,2013-04-08 12:16:00,
2013-04-08 07:31:00,39.6,39.0,29.72,NE,55,0.0,1.0,97,0.00,,,0.79,weatherlink.com 1.10,2013-04-08 12:31:00,
2013-04-08 07:46:00,39.7,39.0,29.72,NE,51,0.0,1.0,97,0.00,,,0.79,weatherlink.com 1.10,2013-04-08 12:46:00,
2013-04-08 08:01:00,39.8,39.0,29.73,ENE,70,0.0,1.0,97,0.00,,,0.79,weatherlink.com 1.10,2013-04-08 13:01:00,
2013-04-08 08:16:00,39.9,39.0,29.73,NE,53,0.0,1.0,97,0.00,,,0.79,weatherlink.com 1.10,2013-04-08 13:16:00,
2013-04-08 08:31:00,39.9,39.0,29.74,East,85,0.0,1.0,97,0.00,,,0.79,weatherlink.com 1.10,2013-04-08 13:31:00,
2013-04-08 08:46:00,40.2,39.0,29.74,ENE,74,0.0,1.0,97,0.00,,,0.79,weatherlink.com 1.10,2013-04-08 13:46:00,
2013-04-08 09:01:00,40.3,40.0,29.74,ENE,73,0.0,1.0,97,0.00,,,0.79,weatherlink.com 1.10,2013-04-08 14:01:00,
2013-04-08 09:16:00,40.3,40.0,29.74,NE,56,0.0,2.0,97,0.00,,,0.79,weatherlink.com 1.10,2013-04-08 14:16:00,
2013-04-08 09:31:00,40.4,40.0,29.75,ENE,68,1.0,2.0,97,0.00,,,0.79,weatherlink.com 1.10,2013-04-08 14:31:00,
2013-04-08 09:46:00,40.5,40.0,29.75,ENE,65,0.0,2.0,97,0.00,,,0.79,weatherlink.com 1.10,2013-04-08 14:46:00,
2013-04-08 10:01:00,40.8,40.0,29.76,ENE,73,0.0,2.0,97,0.00,,,0.79,weatherlink.com 1.10,2013-04-08 15:01:00,
2013-04-08 10:16:00,40.9,40.0,29.75,ENE,74,2.0,4.0,97,0.00,,,0.79,weatherlink.com 1.10,2013-04-08 15:16:00,
2013-04-08 10:31:00,40.9,40.0,29.76,NE,51,1.0,3.0,97,0.00,,,0.79,weatherlink.com 1.10,2013-04-08 15:31:00,
2013-04-08 10:47:00,40.8,40.0,29.77,ENE,70,1.0,2.0,97,0.00,,,0.79,weatherlink.com 1.10,2013-04-08 15:47:00,
2013-04-08 11:02:00,40.8,40.0,29.76,NE,40,0.0,2.0,96,0.00,,,0.79,weatherlink.com 1.10,2013-04-08 16:02:00,
2013-04-08 11:16:00,41.3,41.0,29.77,SW,214,0.0,2.0,97,0.00,,,0.79,weatherlink.com 1.10,2013-04-08 16:16:00,
2013-04-08 11:32:00,41.3,40.0,29.78,East,82,0.0,1.0,96,0.00,,,0.79,weatherlink.com 1.10,2013-04-08 16:32:00,
2013-04-08 11:47:00,41.6,41.0,29.78,West,276,1.0,3.0,96,0.00,,,0.79,weatherlink.com 1.10,2013-04-08 16:47:00,
2013-04-08 12:02:00,41.7,40.0,29.78,NE,44,0.0,4.0,95,0.00,,,0.79,weatherlink.com 1.10,2013-04-08 17:02:00,
2013-04-08 12:17:00,41.8,41.0,29.78,NE,42,2.0,3.0,95,0.00,,,0.79,weatherlink.com 1.10,2013-04-08 17:17:00,
2013-04-08 12:32:00,42.0,41.0,29.79,NE,42,1.0,2.0,95,0.00,,,0.79,weatherlink.com 1.10,2013-04-08 17:32:00,
2013-04-08 12:47:00,42.6,42.0,29.79,NNE,30,0.0,3.0,96,0.00,,,0.79,weatherlink.com 1.10,2013-04-08 17:47:00,
2013-04-08 13:02:00,43.0,41.0,29.80,NNE,29,0.0,2.0,94,0.00,,,0.79,weatherlink.com 1.10,2013-04-08 18:02:00,
2013-04-08 13:17:00,42.9,41.0,29.80,NNE,26,0.0,3.0,93,0.00,,,0.79,weatherlink.com 1.10,2013-04-08 18:17:00,
2013-04-08 13:32:00,43.0,41.0,29.81,NW,304,0.0,2.0,94,0.00,,,0.79,weatherlink.com 1.10,2013-04-08 18:32:00,
2013-04-08 13:47:00,43.4,42.0,29.82,NNW,334,1.0,2.0,93,0.00,,,0.79,weatherlink.com 1.10,2013-04-08 18:47:00,
2013-04-08 14:02:00,43.4,41.0,29.82,NE,41,3.0,4.0,92,0.00,,,0.79,weatherlink.com 1.10,2013-04-08 19:02:00,
2013-04-08 14:17:00,43.4,41.0,29.82,NE,46,0.0,3.0,92,0.00,,,0.79,weatherlink.com 1.10,2013-04-08 19:17:00,
2013-04-08 14:47:00,43.6,41.0,29.83,NE,37,2.0,2.0,91,0.00,,,0.79,weatherlink.com 1.10,2013-04-08 19:47:00,
2013-04-08 15:02:00,44.4,42.0,29.82,NNE,29,2.0,2.0,91,0.00,,,0.79,weatherlink.com 1.10,2013-04-08 20:02:00,
2013-04-08 15:17:00,45.2,43.0,29.82,WNW,301,1.0,4.0,90,0.00,,,0.79,weatherlink.com 1.10,2013-04-08 20:17:00,
2013-04-08 15:32:00,45.0,41.0,29.82,ENE,65,3.0,5.0,87,0.00,,,0.79,weatherlink.com 1.10,2013-04-08 20:32:00,
2013-04-08 15:47:00,44.9,42.0,29.82,NW,314,0.0,5.0,88,0.00,,,0.79,weatherlink.com 1.10,2013-04-08 20:47:00,
2013-04-08 16:02:00,44.5,41.0,29.82,North,4,1.0,5.0,88,0.00,,,0.79,weatherlink.com 1.10,2013-04-08 21:02:00,
2013-04-08 16:17:00,44.9,42.0,29.83,NW,321,3.0,4.0,89,0.00,,,0.79,weatherlink.com 1.10,2013-04-08 21:17:00,
2013-04-08 16:32:00,45.2,42.0,29.84,NE,56,4.0,5.0,87,0.00,,,0.79,weatherlink.com 1.10,2013-04-08 21:32:00,
2013-04-08 16:47:00,44.8,41.0,29.85,ENE,65,3.0,4.0,87,0.00,,,0.79,weatherlink.com 1.10,2013-04-08 21:47:00,
2013-04-08 17:02:00,44.5,41.0,29.86,ENE,63,2.0,3.0,88,0.00,,,0.79,weatherlink.com 1.10,2013-04-08 22:02:00,
2013-04-08 17:17:00,44.5,41.0,29.87,NE,38,2.0,3.0,88,0.00,,,0.79,weatherlink.com 1.10,2013-04-08 22:17:00,
2013-04-08 17:32:00,44.4,41.0,29.89,NE,39,2.0,2.0,88,0.00,,,0.79,weatherlink.com 1.10,2013-04-08 22:32:00,
2013-04-08 17:48:00,44.4,41.0,29.91,ENE,77,0.0,2.0,89,0.00,,,0.79,weatherlink.com 1.10,2013-04-08 22:48:00,
2013-04-08 18:02:00,44.4,41.0,29.91,North,7,1.0,3.0,89,0.00,,,0.79,weatherlink.com 1.10,2013-04-08 23:02:00,
2013-04-08 18:17:00,44.1,41.0,29.90,NE,36,0.0,4.0,89,0.00,,,0.79,weatherlink.com 1.10,2013-04-08 23:17:00,
2013-04-08 18:32:00,43.7,41.0,29.91,North,1,3.0,5.0,90,0.00,,,0.79,weatherlink.com 1.10,2013-04-08 23:32:00,
2013-04-08 18:47:00,43.4,41.0,29.93,WNW,298,3.0,5.0,90,0.00,,,0.79,weatherlink.com 1.10,2013-04-08 23:47:00,
2013-04-08 19:02:00,42.6,40.0,29.94,NNE,25,2.0,3.0,90,0.00,,,0.79,weatherlink.com 1.10,2013-04-09 00:02:00,
2013-04-08 19:17:00,41.8,39.0,29.95,NE,34,1.0,4.0,91,0.00,,,0.79,weatherlink.com 1.10,2013-04-09 00:17:00,
2013-04-08 19:33:00,41.3,39.0,29.96,NE,38,2.0,3.0,92,0.00,,,0.79,weatherlink.com 1.10,2013-04-09 00:33:00,
2013-04-08 19:48:00,41.0,39.0,29.97,NE,40,2.0,5.0,93,0.00,,,0.79,weatherlink.com 1.10,2013-04-09 00:48:00,
2013-04-08 20:03:00,40.8,39.0,29.98,ENE,73,0.0,3.0,94,0.00,,,0.79,weatherlink.com 1.10,2013-04-09 01:03:00,
2013-04-08 20:18:00,40.8,39.0,29.99,WNW,298,0.0,4.0,94,0.00,,,0.79,weatherlink.com 1.10,2013-04-09 01:18:00,
2013-04-08 20:33:00,40.7,39.0,29.99,NNE,30,2.0,3.0,94,0.00,,,0.79,weatherlink.com 1.10,2013-04-09 01:33:00,
2013-04-08 20:48:00,40.6,39.0,29.99,NE,42,0.0,2.0,94,0.00,,,0.79,weatherlink.com 1.10,2013-04-09 01:48:00,
2013-04-08 21:03:00,40.4,39.0,29.99,NE,44,2.0,4.0,94,0.00,,,0.79,weatherlink.com 1.10,2013-04-09 02:03:00,
2013-04-08 21:18:00,40.1,39.0,30.00,NE,53,1.0,4.0,94,0.00,,,0.79,weatherlink.com 1.10,2013-04-09 02:18:00,
2013-04-08 21:33:00,40.1,38.0,30.00,ENE,60,1.0,6.0,93,0.00,,,0.79,weatherlink.com 1.10,2013-04-09 02:33:00,
2013-04-08 21:48:00,39.8,38.0,30.00,NE,41,1.0,6.0,93,0.00,,,0.79,weatherlink.com 1.10,2013-04-09 02:48:00,
2013-04-08 22:03:00,39.7,38.0,30.00,ENE,62,1.0,4.0,93,0.00,,,0.79,weatherlink.com 1.10,2013-04-09 03:03:00,
2013-04-08 22:18:00,39.7,38.0,30.01,NE,48,0.0,4.0,93,0.00,,,0.79,weatherlink.com 1.10,2013-04-09 03:18:00,
2013-04-08 22:33:00,39.7,38.0,30.02,ENE,70,3.0,6.0,92,0.00,,,0.79,weatherlink.com 1.10,2013-04-09 03:33:00,
2013-04-08 22:48:00,39.6,38.0,30.02,ENE,74,1.0,4.0,92,0.00,,,0.79,weatherlink.com 1.10,2013-04-09 03:48:00,
2013-04-08 23:03:00,39.6,37.0,30.04,NW,306,0.0,2.0,91,0.00,,,0.79,weatherlink.com 1.10,2013-04-09 04:03:00,
2013-04-08 23:18:00,39.5,37.0,30.05,ENE,60,0.0,1.0,91,0.00,,,0.79,weatherlink.com 1.10,2013-04-09 04:18:00,
2013-04-08 23:33:00,39.5,37.0,30.05,NNW,347,0.0,2.0,91,0.00,,,0.79,weatherlink.com 1.10,2013-04-09 04:33:00,
2013-04-08 23:48:00,39.4,37.0,30.04,NNE,13,0.0,4.0,91,0.00,,,0.79,weatherlink.com 1.10,2013-04-09 04:48:00,